Карточка аэропорта URRP

Внимание!
Информация на этой странице в стадии наполнения.
Если вы не увидели какой-то информации, или заметили неточность - пожалуйста сообщите нам!
Спасибо!
Команда RU-STAFF
Название аэропортаПлатов
Название аэропорта (англ.)Platov
Превышение282 ft. (86 m.)
Координаты47°29.634', 39°55.482'
Высота перехода3500 ft
Эшелон переходаFL50 (QNH >= 996); FL60 (QNH < 996)
Коды ответчика1001-1017
Зона ОрВДРостов-на-Дону РПИ (URRV)
Данные METARURRP 012130Z 00000MPS 8000 3400NE BR NSC 16/16 Q1016 R23/CLRD70 NOSIG RMK QFE754/1006
Проноз погоды (TAF)URRP 011956Z 0121/0221 23003G10MPS 6000 FEW005 SCT020 TEMPO 0121/0208 19003MPS 0200 FG FEW001 BKN016 FM020800 20003G12MPS 9999 SCT020CB TEMPO 0212/0221 6000 -SHRA SCT016 BKN020CB
NOTAMshow/hide NOTAM
AWOS   TABLE

Информация о ВПП

ВПП Длина ВПП (м.) Покрытие Курс ВПП Частота ILS
233900Цементобетон226110.9
053900Цементобетон46111.5

Диспетчерские позиции

Позывной Наименование органа УВД Частота
URRP_APPПлатов-подход128.2
URRP_DELПлатов-деливери127.1
URRP_R_APPПлатов - Круг121.2
URRP_TWRПлатов-Вышка119.7
URRP_GNDПлатов - руление119.0



Спутниковое изображение